Tracking 28237 objects as of 29-Nov-2023
HD Live streaming from Space Station
objects crossing your sky now

COSMOS 829

Track COSMOS 829 now!
10-day predictions
COSMOS 829 is classified as:


NORAD ID: 8893
Int'l Code: 1976-054E
Perigee: 1,457.4 km
Apogee: 1,497.1 km
Inclination: 74.0 °
Period: 115.3 minutes
Semi major axis: 7848 km
RCS: 0.7039 m2 (medium)
Launch date: June 15, 1976
Source: Commonwealth of Independent States (former USSR) (CIS)
Launch site: PLESETSK MISSILE AND SPACE COMPLEX (PKMTR)
Your satellite tracking list
Your tracking list is empty




NASA's NSSDC Master Catalog

Two Line Element Set (TLE):
1 08893U 76054E   23332.87424670 -.00000021  00000-0 -31528-4 0  9999
2 08893  73.9977 141.1056 0025233 127.5778 346.3408 12.48657929163036
Source of the keplerian elements: AFSPC